Location: Azul
(36.7830°S, 59.8500°W)
Time: 08:55:17
(UTC-03:00)

VELOX 1 - Visible Passes

Search period start: 17 September 2024 00:00
Search period end: 27 September 2024 00:00
Orbit: 599 x 611 km, 98.3° (Epoch: 17 September)

Date Brightness Start Highest point End Pass type
(mag) Time Alt. Az. Time Alt. Az. Time Alt. Az.
17 Sep ? 20:03:49 25° E 20:04:21 25° ESE 20:07:52 10° SSE visible
17 Sep ? 21:40:39 23° W 21:40:39 23° W 21:43:29 10° SW visible
18 Sep ? 20:16:30 34° E 20:16:54 34° ESE 20:20:48 10° S visible
18 Sep ? 21:53:21 17° W 21:53:21 17° W 21:55:35 10° SW visible
19 Sep ? 20:29:11 47° E 20:29:26 48° ESE 20:33:35 10° S visible
19 Sep ? 22:06:01 12° W 22:06:01 12° W 22:07:14 10° WSW visible
20 Sep ? 20:41:50 67° E 20:42:00 68° ESE 20:46:16 10° S visible
21 Sep ? 20:54:28 84° NW 20:54:32 86° WNW 20:58:52 10° SSW visible
22 Sep ? 19:30:46 10° E 19:31:55 11° ESE 19:33:05 10° SE visible
22 Sep ? 21:07:05 60° WNW 21:07:06 60° W 21:11:21 10° SSW visible
23 Sep ? 19:42:50 13° E 19:44:18 15° ESE 19:46:44 10° SSE visible
23 Sep ? 21:19:40 42° W 21:19:40 42° W 21:23:45 10° SSW visible
24 Sep ? 19:55:25 18° E 19:56:40 20° ESE 19:59:50 10° SSE visible
24 Sep ? 21:32:15 30° W 21:32:15 30° W 21:36:01 10° SW visible
25 Sep ? 20:07:57 24° E 20:09:03 27° ESE 20:12:42 10° SSE visible
25 Sep ? 21:44:48 22° W 21:44:48 22° W 21:48:07 10° SW visible
26 Sep ? 20:20:29 32° ENE 20:21:26 37° ESE 20:25:24 10° S visible
26 Sep ? 21:57:20 16° W 21:57:20 16° W 22:00:00 10° SW visible
